AX590 Weather Reports


time (UTC)temp
C
wind
direction
speed
KPH
gust
KPH
rain 1hr
cm
rain 24hr
cm
rain mn
cm
humidity
%
barometer
mb
20260906223016 36 215 3.2 8.0 0.00 0.00 0.00 39 1011.2
20260906222019 37 200 3.2 11.3 0.00 0.00 0.00 38 1011.2
20260906221040 37 187 4.8 11.3 0.00 0.00 0.00 39 1011.2
20260906220020 37 198 3.2 9.7 0.00 0.00 0.00 38 1011.2
20260906215016 37 226 1.6 8.0 0.00 0.00 0.00 39 1011.2
20260906214017 37 197 4.8 11.3 0.00 0.00 0.00 40 1011.3
20260906213020 37 201 4.8 12.9 0.00 0.00 0.00 39 1011.5
20260906212020 37 195 3.2 9.7 0.00 0.00 0.00 39 1011.6
20260906211018 37 190 4.8 11.3 0.00 0.00 0.00 39 1011.7
20260906210017 38 192 3.2 12.9 0.00 0.00 0.00 39 1011.9
20260906205018 37 208 3.2 9.7 0.00 0.00 0.00 40 1012.0
20260906204018 37 194 3.2 11.3 0.00 0.00 0.00 39 1012.1
20260906203041 37 227 3.2 9.7 0.00 0.00 0.00 41 1012.2
20260906202018 37 238 3.2 11.3 0.00 0.00 0.00 40 1012.4
20260906201019 37 212 3.2 9.7 0.00 0.00 0.00 40 1012.4
20260906200018 37 198 4.8 11.3 0.00 0.00 0.00 40 1012.6
20260906195039 37 210 3.2 9.7 0.00 0.00 0.00 41 1012.6
20260906194019 37 247 1.6 8.0 0.00 0.00 0.00 42 1012.8
20260906193017 37 209 3.2 11.3 0.00 0.00 0.00 43 1012.9
20260906192019 37 203 3.2 12.9 0.00 0.00 0.00 43 1013.0
20260906191019 37 219 3.2 8.0 0.00 0.00 0.00 43 1013.1
20260906190020 37 222 3.2 14.5 0.00 0.00 0.00 44 1013.1
20260906185017 37 282 3.2 9.7 0.00 0.00 0.00 44 1013.3
20260906184017 37 268 1.6 9.7 0.00 0.00 0.00 44 1013.4
20260906183040 37 254 3.2 11.3 0.00 0.00 0.00 43 1013.5
20260906182020 37 227 1.6 8.0 0.00 0.00 0.00 44 1013.6
20260906181017 37 200 1.6 11.3 0.00 0.00 0.00 45 1013.7
20260906180058 36 206 3.2 11.3 0.00 0.00 0.00 45 1013.8
20260906175018 36 254 1.6 9.7 0.00 0.00 0.00 46 1014.0
20260906174041 36 238 3.2 11.3 0.00 0.00 0.00 45 1014.1
20260906173039 36 212 3.2 9.7 0.00 0.00 0.00 46 1014.3
20260906172019 36 197 3.2 9.7 0.00 0.00 0.00 46 1014.4
20260906171019 36 207 3.2 11.3 0.00 0.00 0.00 47 1014.5
20260906170019 36 224 1.6 6.4 0.00 0.00 0.00 48 1014.6
20260906165019 35 210 3.2 8.0 0.00 0.00 0.00 49 1014.6
20260906164039 35 202 3.2 11.3 0.00 0.00 0.00 50 1014.6
20260906163020 35 226 3.2 9.7 0.00 0.00 0.00 50 1014.5
20260906162019 35 233 1.6 6.4 0.00 0.00 0.00 50 1014.5
20260906161019 34 195 3.2 11.3 0.00 0.00 0.00 52 1014.4
20260906160017 35 202 3.2 9.7 0.00 0.00 0.00 51 1014.4
20260906155040 34 220 1.6 8.0 0.00 0.00 0.00 52 1014.4
20260906154040 34 213 3.2 9.7 0.00 0.00 0.00 54 1014.4
20260906153017 33 252 1.6 8.0 0.00 0.00 0.00 56 1014.3
20260906152017 33 290 1.6 6.4 0.00 0.00 0.00 57 1014.2
20260906151017 32 261 1.6 4.8 0.00 0.00 0.00 60 1014.2
20260906150020 32 280 1.6 6.4 0.00 0.00 0.00 62 1014.1
20260906145018 31 221 1.6 4.8 0.00 0.00 0.00 65 1014.2
20260906144018 30 213 3.2 6.4 0.00 0.00 0.00 69 1014.2
20260906143047 28 218 1.6 3.2 0.00 0.00 0.00 73 1014.3
20260906142047 28 244 1.6 3.2 0.00 0.00 0.00 75 1014.3
20260906141028 27 241 1.6 3.2 0.00 0.00 0.00 77 1014.3
20260906140028 27 215 1.6 4.8 0.00 0.00 0.00 79 1014.2
20260906135027 26 240 1.6 3.2 0.00 0.00 0.00 80 1014.1
20260906134028 26 206 1.6 4.8 0.00 0.00 0.00 82 1014.2
20260906133028 25 322 0.0 1.6 0.00 0.00 0.00 84 1014.2
20260906132028 25 256 0.0 1.6 0.00 0.00 0.00 85 1014.2
20260906131109 25 0.0 0.0 0.00 0.00 0.00 85 1014.2
20260906130028 25 228 0.0 1.6 0.00 0.00 0.00 86 1014.0
20260906125029 25 0.0 0.0 0.00 0.00 0.00 86 1013.9
20260906124029 25 0.0 0.0 0.00 0.00 0.00 85 1013.9
20260906123029 25 0.0 0.0 0.00 0.00 0.00 86 1013.8
20260906122029 25 0.0 0.0 0.00 0.00 0.00 86 1013.8
20260906121029 25 0.0 0.0 0.00 0.00 0.00 86 1013.6
20260906120030 24 0.0 0.0 0.00 0.00 0.00 85 1013.6
20260906115030 25 0.0 0.0 0.00 0.00 0.00 85 1013.5
20260906114030 25 254 0.0 0.0 0.00 0.00 0.00 85 1013.5
20260906113030 25 223 0.0 1.6 0.00 0.00 0.00 85 1013.4
20260906112030 25 0.0 0.0 0.00 0.00 0.00 85 1013.3
20260906111050 25 240 0.0 0.0 0.00 0.00 0.00 85 1013.3
20260906110030 25 265 0.0 0.0 0.00 0.00 0.00 84 1013.2
20260906105031 25 0.0 0.0 0.00 0.00 0.00 84 1013.0
20260906104031 25 0.0 0.0 0.00 0.00 0.00 84 1012.9
20260906103016 25 251 0.0 0.0 0.00 0.00 0.00 83 1013.0
20260906102051 25 0.0 0.0 0.00 0.00 0.00 83 1013.0
20260906101052 25 220 0.0 1.6 0.00 0.00 0.00 82 1012.9
20260906100031 25 0.0 0.0 0.00 0.00 0.00 82 1012.9
20260906095032 25 0.0 0.0 0.00 0.00 0.00 81 1012.8
20260906094017 26 0.0 0.0 0.00 0.00 0.00 80 1012.8
20260906093017 26 221 0.0 1.6 0.00 0.00 0.00 80 1012.6
20260906092038 26 203 0.0 3.2 0.00 0.00 0.00 80 1012.6
20260906091018 26 201 0.0 1.6 0.00 0.00 0.00 79 1012.5
20260906090018 26 215 0.0 3.2 0.00 0.00 0.00 78 1012.5
20260906085019 26 197 1.6 4.8 0.00 0.00 0.00 78 1012.4
20260906084019 26 205 0.0 3.2 0.00 0.00 0.00 77 1012.3
20260906083019 26 208 0.0 3.2 0.00 0.00 0.00 76 1012.2
20260906082019 26 219 1.6 4.8 0.00 0.00 0.00 76 1012.2
20260906081057 27 212 1.6 4.8 0.00 0.00 0.00 75 1012.3
20260906080036 27 210 1.6 4.8 0.00 0.00 0.00 75 1012.4
20260906075019 27 190 0.0 4.8 0.00 0.00 0.00 74 1012.3
20260906074040 27 217 1.6 3.2 0.00 0.00 0.00 73 1012.3
20260906073040 27 232 0.0 3.2 0.00 0.00 0.00 73 1012.4
20260906072017 27 228 1.6 4.8 0.00 0.00 0.00 72 1012.5
20260906071018 27 227 1.6 4.8 0.00 0.00 0.00 71 1012.7
20260906070018 27 214 1.6 4.8 0.00 0.00 0.00 71 1012.8
20260906065020 27 228 1.6 3.2 0.00 0.00 0.00 71 1012.8
20260906064038 27 223 1.6 4.8 0.00 0.00 0.00 70 1012.8
20260906063018 28 205 1.6 6.4 0.00 0.00 0.00 70 1012.7
20260906062039 28 214 1.6 4.8 0.00 0.00 0.00 70 1012.6
20260906061018 28 233 1.6 4.8 0.00 0.00 0.00 70 1012.6
20260906060019 28 220 1.6 4.8 0.00 0.00 0.00 69 1012.7
20260906055019 28 219 1.6 4.8 0.00 0.00 0.00 69 1012.7
20260906054019 28 238 1.6 4.8 0.00 0.00 0.00 69 1012.7
20260906053019 28 214 0.0 3.2 0.00 0.00 0.00 68 1012.7
20260906052037 29 233 1.6 3.2 0.00 0.00 0.00 67 1012.7
20260906051017 29 208 1.6 4.8 0.00 0.00 0.00 66 1012.8
20260906050019 29 193 1.6 6.4 0.00 0.00 0.00 65 1012.8
20260906045040 29 184 4.8 9.7 0.00 0.00 0.00 65 1012.7
20260906044017 29 188 3.2 8.0 0.00 0.00 0.00 66 1012.7
20260906043017 29 207 3.2 8.0 0.00 0.00 0.00 65 1012.7
20260906042018 29 201 3.2 6.4 0.00 0.00 0.00 65 1012.7
20260906041021 30 189 3.2 8.0 0.00 0.00 0.00 64 1012.7
20260906040018 30 200 1.6 6.4 0.00 0.00 0.00 64 1012.7
20260906035038 30 205 1.6 4.8 0.00 0.00 0.00 63 1012.7
20260906034019 30 197 3.2 8.0 0.00 0.00 0.00 62 1012.6
20260906033018 30 199 3.2 8.0 0.00 0.00 0.00 62 1012.6
20260906032019 30 189 4.8 11.3 0.00 0.00 0.00 61 1012.7
20260906031019 30 199 3.2 6.4 0.00 0.00 0.00 61 1012.7
20260906030019 30 193 4.8 9.7 0.00 0.00 0.00 61 1012.7
20260906025019 30 199 4.8 8.0 0.00 0.00 0.00 61 1012.5
20260906024019 30 204 3.2 9.7 0.00 0.00 0.00 60 1012.4
20260906023020 31 195 4.8 8.0 0.00 0.00 0.00 60 1012.2
20260906022040 31 201 4.8 9.7 0.00 0.00 0.00 58 1012.1
20260906021019 31 201 4.8 9.7 0.00 0.00 0.00 57 1012.0
20260906020017 32 198 4.8 12.9 0.00 0.00 0.00 56 1012.0
20260906015017 32 200 4.8 11.3 0.00 0.00 0.00 54 1011.8
20260906014038 32 194 4.8 11.3 0.00 0.00 0.00 53 1011.7
20260906013020 33 200 4.8 12.9 0.00 0.00 0.00 51 1011.5
20260906012018 33 202 3.2 8.0 0.00 0.00 0.00 47 1011.3
20260906011018 33 232 1.6 4.8 0.00 0.00 0.00 47 1011.1
20260906010017 33 224 1.6 4.8 0.00 0.00 0.00 46 1011.0
20260906005018 34 234 1.6 3.2 0.00 0.00 0.00 46 1011.0
20260906004018 34 234 1.6 4.8 0.00 0.00 0.00 45 1011.0
20260906003018 34 235 1.6 4.8 0.00 0.00 0.00 44 1011.0
20260906002019 35 223 1.6 8.0 0.00 0.00 0.00 43 1011.0
20260906001019 35 229 1.6 6.4 0.00 0.00 0.00 42 1011.0
20260906000019 35 213 1.6 4.8 0.00 0.00 0.00 43 1010.9
20260905235019 35 209 1.6 9.7 0.00 0.00 0.00 42 1010.8
20260905234019 35 200 3.2 9.7 0.00 0.00 0.00 41 1010.8
20260905233020 35 212 1.6 6.4 0.00 0.00 0.00 41 1010.8
20260905232019 36 266 1.6 8.0 0.00 0.00 0.00 40 1010.8
20260905231017 36 210 1.6 8.0 0.00 0.00 0.00 40 1010.9
20260905230057 36 258 1.6 4.8 0.00 0.00 0.00 39 1010.8
20260905225020 36 212 3.2 6.4 0.00 0.00 0.00 38 1010.8
20260905224020 37 200 1.6 8.0 0.00 0.00 0.00 39 1010.7